Location: Killam
(52.7910°N, 111.8608°W)
Time: 21:30:07
(UTC+00:00)

Vanguard 2 Rocket - Pass Details

Date: 16 February 2026
Orbit: 553 x 3286 km, 32.9° (Epoch: 8 March)

Event Time Altitude Azimuth Distance (km) Brightness Sun altitude
Rises 21:57:30 0° 242° (WSW) 6,956 12.5 18.9°
Reaches altitude 10° 22:03:25 10° 233° (SW) 5,612 12.7 18.3°
Maximum altitude 22:15:40 28° 183° (S) 3,351 10.8 17.2°
Drops below altitude 10° 22:23:57 10° 129° (SE) 3,734 10.1 16.4°
Sets 22:26:58 0° 118° (ESE) 4,363 10.2 16.1°
